TIME,DELAY(SENSOR),PRES,OXYGEN,RAWTEMP,T(OPTODE),TCPHASE,FLUOR,BETA(BETA700),BETA(BETA412),BETA(BETA440),CDOM,C(CSC),ED(ED411.90),ED(ED443.80),ED(ED489.40),ED(ED554.70),LU(LU412.20),LU(LU443.80),LU(LU489.40),LU(LU555.00),COMP,TILTX,TILTY,CHECK
1351806668,5803,883.8400268554688000,165.1248016357422000,435.6914978027344000,9.5119190216064450,39.1685295104980500,51,107,70,64,73,13777,2146956745,2147514075,2147285760,2147504612,2147087689,2146931721,2147704466,2147122742,2103,-1,8,50700
1351810265,5806,995.3400268554688000,199.5178985595703000,501.8413085937500000,7.4723582267761230,37.9604797363281250,52,103,70,66,73,13770,2146957842,2147514880,2147293037,2147519332,2147087771,2146927542,2147719213,2147123574,2491,-1,8,10048
1351813865,5809,1015.3900146484375000,211.5872039794922000,513.3908081054688000,7.1134490966796875,37.4388389587402340,52,105,69,65,73,13756,2146961645,2147514605,2147295826,2147522285,2147090221,2146924626,2147718281,2147118637,258,-1,8,48038
1351817465,5808,1022.8599853515625000,212.3968963623047000,514.0217895507812000,7.0938138961791990,37.4023704528808600,52,102,69,64,72,13754,2146961600,2147517421,2147297408,2147523373,2147091565,2146924937,2147717732,2147122166,248,-1,8,8103
1351821065,5806,1025.2900390625000000,213.0885009765625000,515.3892211914062000,7.0512528419494630,37.3871116638183600,52,103,69,64,73,13750,2146958838,2147515318,2147298139,2147521728,2147092370,2146918774,2147725010,2147121042,318,-1,8,53818
1351824665,5806,1032.1700439453125000,213.8153991699218800,515.9467773437500000,7.0338950157165530,37.3540382385253900,52,101,69,66,73,13749,2146961270,2147516836,2147294601,2147522779,2147088969,2146921801,2147720832,2147122084,158,-1,8,29254
1351828265,5806,1034.4599609375000000,214.1542053222656200,516.2677001953125000,7.0239038467407230,37.3407707214355500,52,122,70,64,74,13747,2146963145,2147520246,2147296603,2147521188,2147093284,2146925321,2147724434,2147121051,3376,-1,8,690
1351831865,5805,1034.0500488281250000,216.7079010009765600,519.3253173828125000,6.9286699295043945,37.2487487792968750,52,103,68,65,73,13747,2146961106,2147516800,2147296374,2147517650,2147089700,2146922121,2147722038,2147122989,3450,-1,8,5014
1351835465,5808,1031.6199951171875000,213.8247985839843800,514.2921752929688000,7.0854001045227050,37.3248291015625000,53,104,70,66,73,13747,2146960073,2147516004,2147294336,2147518400,2147091638,2146923190,2147719094,2147119872,10,-1,8,16350
1351839065,5804,1025.9399414062500000,211.8381958007812500,515.6110229492188000,7.0443491935729980,37.4633789062500000,53,100,70,65,73,13746,2146961993,2147517202,2147296310,2147519332,2147093037,2146925476,2147721243,2147119195,3353,-1,8,57720
1351842665,5808,1022.7100219726562000,215.5915069580078000,517.4943237304688000,6.9857082366943360,37.2801895141601560,52,104,68,65,72,13743,2146960941,2147514898,2147295954,2147520365,2147089188,2146925476,2147719442,2147120978,278,-1,8,22647
1351846265,5805,1022.1300048828125000,216.0518035888672000,517.9230957031250000,6.9723520278930660,37.2613983154296900,52,129,69,66,72,13740,2146960438,2147517860,2147296777,2147521389,2147089563,2146921755,2147718555,2147121545,3516,-1,8,22402
1351849865,5808,1025.9100341796875000,216.0298004150390600,517.7548828125000000,6.9775910377502440,37.2593116760253900,53,102,68,66,73,13740,2146960146,2147519350,2147295515,2147522752,2147090514,2146924288,2147721398,2147121014,137,0,8,27116
1351853465,5804,1022.1599731445312000,216.6076049804687500,519.3316040039062000,6.9284729957580570,37.2544288635253900,53,103,70,65,73,13741,2146962176,2147516937,2147294902,2147518976,2147092498,2146919268,2147722532,2147122368,3475,-1,8,24608
1351857065,5807,1024.1700439453125000,215.2563934326172000,519.7496948242188000,6.9154458045959470,37.3392601013183600,52,101,69,65,73,13741,2146961334,2147517430,2147296356,2147522953,2147092288,2146921691,2147721417,2147124315,252,0,8,21020
1351860665,5810,1026.4000244140625000,215.7758941650390600,519.2761230468750000,6.9302020072937010,37.3011817932128900,52,101,70,65,73,13742,2146963209,2147519158,2147299876,2147519808,2147090651,2146922002,2147721472,2147122349,70,0,8,37497
1351864265,5804,1028.8599853515625000,216.6595001220703000,518.6317749023438000,6.9502749443054200,37.2388000488281250,52,104,69,65,73,13740,2146959817,2147519414,2147295506,2147519725,2147091748,2146920621,2147724022,2147122340,582,-1,8,49236
1351867865,5806,1035.1600341796875000,213.3215942382812500,515.0543212890625000,7.0616798400878910,37.3675804138183600,53,108,69,65,72,13736,2146960402,2147518747,2147295259,2147521280,2147089865,2146927177,2147720576,2147125321,3414,-1,8,7821
1351871465,5811,1033.7299804687500000,213.0292968750000000,516.2653808593750000,7.0239729881286620,37.4057693481445300,52,102,68,64,72,13734,2146960228,2147515648,2147296521,2147520557,2147094235,2146924169,2147721984,2147121225,25,-1,8,55235
1351875065,5806,1036.0200195312500000,213.4416961669922000,516.5197143554688000,7.0160589218139650,37.3862800598144500,52,106,67,66,73,13736,2146959890,2147519789,2147296448,2147521380,2147089947,2146920749,2147720283,2147121307,291,-1,8,2013
1351878665,5806,1012.1599731445312000,207.6631011962890600,508.5780944824219000,7.2631192207336430,37.5851516723632800,53,100,68,64,72,13739,2146962742,2147517723,2147294784,2147522450,2147090971,2146923026,2147716224,2147123803,1069,-1,8,15490
1351882265,5806,1014.0999755859375000,207.4671936035156200,507.8161926269531000,7.2867980003356930,37.5828704833984400,52,100,68,65,72,13738,2146961984,2147515748,2147297188,2147521014,2147088566,2146916196,2147718336,2147122925,253,-1,8,45902
1351885865,5805,1006.6300048828125000,207.8623962402343800,508.3645935058594000,7.2697539329528810,37.5691795349121100,52,103,69,66,72,13736,2146962258,2147515748,2147296411,2147522038,2147093156,2146931282,2147717942,2147119515,3531,-1,8,52650
1351889465,5808,1009.9099731445312000,208.9898986816406200,509.6131896972656000,7.2309432029724120,37.5240592956543000,51,105,69,67,73,13733,2146958985,2147516141,2147295442,2147517869,2147089316,2146922185,2147719744,2147121398,199,-1,8,61029
1351893065,5808,1005.0000000000000000,209.2035980224609400,509.9100952148437500,7.2217102050781250,37.5171318054199200,52,102,68,66,73,13732,2146958262,2147518573,2147295241,2147519314,2147086427,2146916553,2147716553,2147117888,500,-1,8,63595
1351896665,5807,1011.0800170898438000,208.9662933349609400,509.4464111328125000,7.2361268997192380,37.5234603881835940,52,103,68,66,73,13731,2146965129,2147517339,2147295286,2147519378,2147089600,2146930075,2147718162,2147121005,309,0,8,57663
1351900265,5808,1011.5000000000000000,208.2922973632812500,508.4072875976562500,7.2684249877929690,37.5450401306152340,52,102,69,65,73,13732,2146964608,2147518500,2147293869,2147516260,2147087954,2146924809,2147718061,2147123108,504,-1,8,35371
1351903865,5806,1014.0000000000000000,207.4873046875000000,507.5621032714844000,7.2946949005126950,37.5770683288574200,52,102,70,65,73,13732,2146962121,2147518683,2147294144,2147521993,2147091821,2146924891,2147722166,2147120822,318,-1,8,9304
1351907465,5806,1019.3300170898438000,206.0749053955078000,506.3431091308594000,7.3325681686401370,37.6407012939453100,52,105,69,66,73,13729,2146963163,2147518921,2147295990,2147517796,2147091565,2146926253,2147719305,2147120219,198,0,8,51993
1351911065,5806,1016.5499877929688000,203.8721923828125000,504.3761901855469000,7.3936619758605960,37.7389907836914060,52,101,68,63,74,13728,2146962825,2147518262,2147294354,2147518409,2147092123,2146923958,2147714102,2147122368,3371,0,8,20746
1351914665,5807,1015.1400146484375000,206.6389007568359400,507.5669860839844000,7.2945427894592285,37.6286201477050800,52,100,68,65,72,13732,2146960521,2147518829,2147295844,2147519670,2147092196,2146928786,2147715739,2147121609,5,0,8,37405
1351918265,5808,1015.8800048828125000,205.6896972656250000,508.1084899902344000,7.2777152061462400,37.6949005126953100,52,102,68,65,73,13727,2146958829,2147518683,2147294409,2147520256,2147089627,2146930944,2147720950,2147121216,222,-1,8,803
1351921865,5806,1012.7299804687500000,206.0381011962890600,508.9519958496094000,7.2514948844909670,37.6887588500976560,53,104,68,66,73,13725,2146963190,2147517184,2147294473,2147519826,2147091008,2146921453,2147718381,2147120987,3528,0,8,15390
1351925465,5808,1013.2700195312500000,206.7709045410156200,507.7398071289062500,7.2891731262207030,37.6237907409668000,51,103,69,65,73,13725,2146962752,2147516672,2147296932,2147518189,2147090340,2146923309,2147716269,2147120237,343,-1,8,7314
1351929065,5808,1007.1199951171875000,205.4151000976562500,509.8427124023437500,7.2238049507141110,37.7419700622558600,52,102,68,66,72,13723,2146961106,2147520777,2147296950,2147520704,2147089435,2146924370,2147718354,2147120868,576,0,8,41126
1351932665,5810,1010.8200073242188000,207.1009979248047000,511.1169128417969000,7.1841831207275390,37.6631011962890600,52,101,69,66,73,13727,2146962916,2147516114,2147297472,2147519515,2147092534,2146921216,2147724105,2147120320,38,0,8,11047
1351936265,5808,1011.0999755859375000,207.6192932128906200,510.8760070800781000,7.1916780471801760,37.6277084350585940,52,104,68,65,72,13725,2146957494,2147517220,2147297152,2147519734,2147094290,2146923812,2147719433,2147124096,239,0,8,44443
1351939865,5809,1011.2999877929688000,207.7525024414062500,510.4403991699219000,7.2052221298217770,37.6124382019043000,52,101,69,65,73,13725,2146961334,2147519826,2147295606,2147518454,2147091684,2146925476,2147721627,2147123721,435,0,8,17565
1351943465,5809,1015.8200073242188000,207.8645935058593800,507.9753112792969000,7.2818541526794430,37.5625495910644500,52,103,69,64,73,13728,2146959670,2147517650,2147295040,2147521453,2147090176,2146931949,2147714916,2147124022,83,-1,8,12473
1351947065,5807,1016.5800170898438000,207.2772979736328000,508.9443969726562500,7.2517318725585940,37.6139793395996100,52,100,69,64,72,13725,2146964571,2147513572,2147295844,2147519506,2147088548,2146921435,2147724105,2147121115,476,0,8,49302
1351950356,5803,1014.2899780273438000,208.2057037353515600,509.7904968261719000,7.2254290580749510,37.5740814208984400,53,104,68,65,72,13732,2146959616,2147518656,2147299117,2147516288,2147093129,2146918290,2147719872,2147120832,2954,-1,8,5158
